This demonstration page uses our WeatherBlox Daily Observations layout. Learn more.

Left ArrowRight Arrow

38.80484, -77.04692

Hourly Observations for September 24, 2020

Temp ( °F °C ) Dew Point ( °F °C ) Humidity (%) Winds ( mph kmh ) Pressure ( in mb ) Visibility ( mi km ) Precip ( " mm )
12:52 am 00:52 Cloudy 63 17.2 55 12.8 76 76 SSW 6 9 29.99 1016 10 16 N/A
1:52 am 01:52 Mostly Cloudy 63 17.2 54 12.2 73 73 SSW 6 9 29.98 1015 10 16 N/A
2:52 am 02:52 Mostly Cloudy 63 17.2 55 12.8 76 76 S 3 6 29.98 1015 10 16 N/A
3:52 am 03:52 Mostly Cloudy 62 16.7 57 13.9 84 84 N N/A 29.98 1015 10 16 N/A
4:52 am 04:52 Cloudy 61 16.1 57 13.9 87 87 S 3 6 29.98 1015 10 16 N/A
5:52 am 05:52 Cloudy 64 17.8 58 14.4 81 81 N N/A 29.99 1016 10 16 N/A
6:52 am 06:52 Cloudy 63 17.2 56 13.3 78 78 N N/A 30.00 1016 10 16 N/A
7:52 am 07:52 Cloudy 64 17.8 59 15 84 84 SE 3 6 30.01 1016 10 16 N/A
8:52 am 08:52 Cloudy 66 18.9 57 13.9 73 73 NNE 3 6 30.02 1017 10 16 N/A
9:52 am 09:52 Cloudy 67 19.4 57 13.9 71 71 NNW 5 7 30.04 1017 10 16 N/A
10:52 am 10:52 Cloudy 71 21.7 57 13.9 61 61 NNW 5 7 30.04 1017 10 16 N/A
11:52 am 11:52 Cloudy 70 21.1 58 14.4 66 66 NNW 3 6 30.04 1017 10 16 N/A
12:52 pm 12:52 Cloudy 72 22.2 59 15 64 64 N N/A 30.03 1017 10 16 N/A
1:52 pm 13:52 Cloudy 71 21.7 62 16.7 73 73 S 10 17 30.03 1017 10 16 N/A
2:52 pm 14:52 Cloudy 71 21.7 62 16.7 73 73 S 5 7 30.01 1016 10 16 N/A
3:52 pm 15:52 Cloudy 71 21.7 62 16.7 73 73 S 6 9 30.01 1016 10 16 N/A
4:52 pm 16:52 Cloudy 70 21.1 63 17.2 79 79 S 10 17 30.01 1016 10 16 N/A
5:52 pm 17:52 Cloudy 70 21.1 62 16.7 76 76 SSW 6 9 30.02 1017 10 16 N/A
6:52 pm 18:52 Cloudy 68 20 62 16.7 81 81 S 6 9 30.02 1017 10 16 N/A
7:52 pm 19:52 Mostly Cloudy 67 19.4 62 16.7 84 84 SW 5 7 30.03 1017 10 16 N/A
8:52 pm 20:52 Mostly Cloudy 67 19.4 61 16.1 81 81 SW 3 6 30.04 1017 10 16 N/A
9:52 pm 21:52 Mostly Cloudy 65 18.3 61 16.1 87 87 S 7 11 30.05 1018 10 16 N/A
10:52 pm 22:52 Mostly Cloudy 64 17.8 62 16.7 93 93 SSW 5 7 30.06 1018 10 16 N/A
11:52 pm 23:52 Mostly Cloudy 64 17.8 61 16.1 90 90 S 5 7 30.06 1018 10 16 N/A

Powered by AerisWeather